Location: Black Swamp Observatory
(41.3920°N, 84.1250°W)
Time: 17:59:49
(UTC-05:00)

ISS - Pass Details

Date: 02 December 2021
Orbit: 413 x 422 km, 51.6° (Epoch: 20 January)

Event Time Altitude Azimuth Distance (km) Brightness Sun altitude
Rises 17:56:47 0° 307° (NW) 2,386 0.5 -9.2°
Reaches altitude 10° 17:59:25 10° 328° (NNW) 1,517 -0.8 -9.7°
Maximum altitude 18:01:47 17° 12° (NNE) 1,142 -1.9 -10.1°
Enters shadow 18:03:22 13° 45° (NE) 1,320 -1.8 -10.3°
